Content
SEND FEEDBACK

Daily
Averages
Monthly
Summary
Canada

QUEBEC CITY, QUEBEC


Home > North America > Canada > Quebec
Elevation: 239 feet     Latitude: 46 48N     Longitude: 071 23W

WEATHER
 
SELECT A DAY
Number of Records: 192,115;   Date Range: 6/30/96 - 7/30/14
 
SHARE

PRINT THIS DATA

[ ← Previous Day ]
WEATHER ALMANAC - JANUARY 27, 2013
[ Next Day → ]
[ °C ]   °F
Weather ElementAverageHighLow
Temperature2.5 °F10.4 °F (3:00 pm)-4 °F (7:00 am)
Dewpoint-9.3 °F-3 °F (4:00 pm)-14.8 °F (7:00 am)
Humidity54.6 %61 % (8:00 pm)39 % (4:00 pm)
Barometer30.39 in30.50 in (7:00 pm)30.24 in (1:00 am)
Wind Speed13.4 mph24.2 mph (12:00 pm)
Wind Gust27.6 mph (2:00 pm)
Weather ElementAverage
Visibility21.7 mi
Wind DirectionWSW (243.9 °)

Weather ElementTotal
Precipitation---
Heating Degree Days61.8 (Base 65)
Averaged from 31 records on January 27, 2013
WEATHER CONDITIONS BREAKOUT
WIND DIRECTION BREAKOUT
WEATHER BY HOUR - JANUARY 27, 2013
[ °C ]   °F
Local TimeTemperatureDewpointHumidityBarometerVisibilityWind DirectionWind SpeedGust SpeedPrecipitationEventsConditions
1:00 AM-1.0 °F-9.0 °F56 %30.24 inWest (260°)5.8 mph
1:00 AM-0.4 °F-13.0 °F55 %30.24 in15.0 miWest (270°)9.2 mphPartly Cloudy
2:00 AM1.4 °F-11.2 °F56 %30.26 in15.0 miWest (260°)11.5 mphMostly Cloudy
3:00 AM1.4 °F-11.2 °F56 %30.28 in15.0 miWest (260°)12.7 mphMostly Cloudy
4:00 AM1.0 °F-7.0 °F55 %30.30 inWest (260°)11.5 mph
4:00 AM-0.4 °F-11.2 °F60 %30.30 in15.0 miWest (270°)17.3 mphOvercast
5:00 AM-0.4 °F-11.2 °F60 %30.32 in15.0 miWest (260°)13.8 mph19.6 mphOvercast
6:00 AM-2.2 °F-13.0 °F60 %30.35 in15.0 miWSW (250°)16.1 mphMostly Cloudy
7:00 AM-3.0 °F-10.0 °F60 %30.37 inSW (230°)6.9 mph
7:00 AM-4.0 °F-14.8 °F60 %30.37 in20.0 miSW (230°)11.5 mphPartly Cloudy
8:00 AM-4.0 °F-14.8 °F60 %30.40 in30.0 miWSW (240°)15.0 mphPartly Cloudy
9:00 AM-2.2 °F-13.0 °F60 %30.41 in30.0 miWest (260°)13.8 mphPartly Cloudy
10:00 AM1.0 °F-9.0 °F47 %30.43 inWSW (240°)9.2 mph
10:00 AM1.4 °F-13.0 °F51 %30.43 in30.0 miWSW (240°)16.1 mphPartly Cloudy
11:00 AM3.2 °F-13.0 °F47 %30.42 in30.0 miSW (230°)20.7 mphScattered Clouds
12:00 PM5.0 °F-7.6 °F56 %30.40 in30.0 miSW (230°)24.2 mphMostly Cloudy
1:00 PM8.0 °F-4.0 °F42 %30.40 inWSW (240°)11.5 mph
1:00 PM6.8 °F-7.6 °F52 %30.40 in30.0 miSW (230°)19.6 mph25.3 mphMostly Cloudy
2:00 PM8.6 °F-7.6 °F48 %30.40 in30.0 miSW (230°)19.6 mph27.6 mphScattered Clouds
3:00 PM10.4 °F-7.6 °F44 %30.41 in30.0 miSW (220°)19.6 mphSnowLow Drifting Snow
4:00 PM10.0 °F-3.0 °F39 %30.43 inWSW (250°)16.1 mph
4:00 PM8.6 °F-5.8 °F52 %30.43 in30.0 miWSW (250°)20.7 mph27.6 mphSnowLow Drifting Snow
5:00 PM6.8 °F-5.8 °F56 %30.45 in30.0 miSW (230°)16.1 mphPartly Cloudy
6:00 PM5.0 °F-7.6 °F56 %30.48 in15.0 miSW (220°)12.7 mphPartly Cloudy
7:00 PM5.0 °F-3.0 °F55 %30.49 inWSW (240°)8.1 mph
7:00 PM3.2 °F-9.4 °F56 %30.50 in15.0 miWSW (250°)9.2 mphPartly Cloudy
8:00 PM1.4 °F-9.4 °F61 %30.49 in15.0 miWSW (250°)8.1 mphPartly Cloudy
9:00 PM3.2 °F-9.4 °F56 %30.48 in15.0 miSW (230°)11.5 mphClear
10:00 PM4.0 °F-4.0 °F56 %30.45 inWSW (240°)5.8 mph
10:00 PM1.4 °F-9.4 °F61 %30.45 in15.0 miWSW (240°)9.2 mphClear
11:00 PM-0.4 °F-11.2 °F60 %30.45 in15.0 miWSW (250°)12.7 mphClear
Hourly data recorded from CYQB, located miles away from Quebec City, Quebec







STORIES FROM OUR PARTNERS